User: anonymous
Location: Camp Creek
(33.9000°N, 111.8167°W)
Time: 01:49:20
(UTC-07:00)
Language:

Cosmos 2322 Rocket - Orbit

View from above orbital plane
View from above orbital plane
View from above satellite
View from above satellite

Ground track
Ground track

The orbit data is extracted from the following two-line orbital elements,

1 23705U 95058B   14237.76543245 -.00000287  00000-0 -12372-3 0  3224
2 23705 071.0246 022.3912 0010685 054.8836 305.3287 14.15018991971994
Epoch (UTC): 25 August 2014 18:22:13
Eccentricity: 0.0010685
inclination: 71.0246°
perigee height: 834 km
apogee height: 850 km
right ascension of ascending node: 22.3912°
argument of perigee: 54.8836°
revolutions per day: 14.15018991
mean anomaly at epoch: 305.3287°
orbit number at epoch: 97199

The dashed part of the orbit path shows where the satellite is in the earth's shadow,  

DLR